Voyager Of The Seas — C6SE5 — position and weather

sailwx.info

Track history (hours):
 
Tides and Currents Weather Stations Pressure Air Temp Water Temp Dewpoint Dewpoint Depression Visibility Wind Speed Wind Dir Waves Ship Positions

Voyager Of The Seas

Operator: Royal Caribbean Cruises Ltd

Last reported at 2014-Aug-22 19:33 UTC. Time now 2014-Aug-22 19:38 UTC.
Position N 38°14' E 121°33'.

Type: Passenger vessel. MMSI: 311317000.

Date/timePositionNaut miles runAvg speedWind from/ knotsBaromVisibWave heightAir tempDewpointWater temp
2014-Aug-22 19:33N 38°14' E 121°33'2120.1
2014-Aug-22 18:32N 38°25' E 121°11'3617.8
2014-Aug-22 16:31N 38°36' E 120°28'8817.8
2014-Aug-22 11:33N 38°49' E 118°35'1817.8
2014-Aug-22 10:33N 38°51' E 118°13'1515.4
2014-Aug-22 09:33N 38°57' E 117°55'5 4.4
2014-Aug-22 08:32N 38°59' E 117°49'0 0.0
2014-Aug-22 07:31N 38°59' E 117°49'0 0.0
2014-Aug-22 06:28N 38°59' E 117°49'0 0.0
2014-Aug-22 05:31N 38°59' E 117°49'0 0.0
2014-Aug-22 04:31N 38°59' E 117°49'0 0.0
2014-Aug-22 03:31N 38°59' E 117°49'0 0.0
2014-Aug-22 02:31N 38°59' E 117°49'0 0.0
2014-Aug-22 01:31N 38°59' E 117°49'0 0.0
2014-Aug-22 00:31N 38°59' E 117°49'0 0.0
2014-Aug-21 23:31N 38°59' E 117°49'0 0.0
2014-Aug-21 22:31N 38°59' E 117°49'1010.1
2014-Aug-21 21:33N 38°56' E 118°01'15914.5
2014-Aug-21 10:33N 38°26' E 121°22'1813.5
2014-Aug-21 09:11N 38°16' E 121°41'2513.8
2014-Aug-21 07:23N 38°03' E 122°09'1213.6
2014-Aug-21 06:33N 37°58' E 122°22'1413.6
2014-Aug-21 05:33N 37°51' E 122°36'1313.5
2014-Aug-21 04:33N 37°44' E 122°51'1313.0
2014-Aug-21 03:33N 37°35' E 123°02'  
2014-Aug-16 23:15N 37°43' E 122°53'3319.0
2014-Aug-16 21:29N 37°59' E 122°16'3918.3
2014-Aug-16 19:22N 38°16' E 121°32'1518.3
2014-Aug-16 18:33N 38°24' E 121°16'11518.7
2014-Aug-16 12:25N 38°47' E 118°52'1518.1
2014-Aug-16 11:33N 38°49' E 118°32'1717.2
2014-Aug-16 10:33N 38°52' E 118°11'1414.4
2014-Aug-16 09:33N 38°57' E 117°53'4 3.5
2014-Aug-16 08:32N 38°59' E 117°49'0 0.0
2014-Aug-16 07:29N 38°59' E 117°49'0 0.0
2014-Aug-16 06:29N 38°59' E 117°49'0 0.0
2014-Aug-16 05:29N 38°59' E 117°49'0 0.0
2014-Aug-16 04:32N 38°59' E 117°49'0 0.0
2014-Aug-16 03:23N 38°59' E 117°49'0 0.0
2014-Aug-16 02:29N 38°59' E 117°49'0 0.0
2014-Aug-16 01:29N 38°59' E 117°49'0 0.0
2014-Aug-16 00:29N 38°59' E 117°49'0 0.0
2014-Aug-15 23:26N 38°59' E 117°49'0 0.0
2014-Aug-15 22:32N 38°59' E 117°49'1010.2
2014-Aug-15 21:33N 38°56' E 118°02'9 9.1
2014-Aug-15 20:33N 38°54' E 118°13'1313.1
2014-Aug-15 19:33N 38°50' E 118°29'13114.6
2014-Aug-15 10:33N 38°26' E 121°14'1413.9
2014-Aug-15 09:32N 38°20' E 121°30'1414.6
2014-Aug-15 08:33N 38°13' E 121°47'1414.3
2014-Aug-15 07:34N 38°06' E 122°02'1413.7
2014-Aug-15 06:33N 37°59' E 122°17'3113.3
2014-Aug-15 04:15N 37°44' E 122°51'1014.0
2014-Aug-15 03:33N 37°38' E 123°01'1514.8
2014-Aug-15 02:33N 37°25' E 123°09'  
Track history (hours):
 
Tides and Currents Weather Stations Pressure Air Temp Water Temp Dewpoint Dewpoint Depression Visibility Wind Speed Wind Dir Waves Ship Positions

Voyager Of The Seas

Operator: Royal Caribbean Cruises Ltd

Last reported at 2014-Aug-22 19:33 UTC. Time now 2014-Aug-22 19:38 UTC.
Position N 38°14' E 121°33'.

Type: Passenger vessel. MMSI: 311317000.

Date/timePositionNaut miles runAvg speedWind from/ knotsBaromVisibWave heightAir tempDewpointWater temp
2014-Aug-22 19:33N 38°14' E 121°33'2120.1
2014-Aug-22 18:32N 38°25' E 121°11'3617.8
2014-Aug-22 16:31N 38°36' E 120°28'8817.8
2014-Aug-22 11:33N 38°49' E 118°35'1817.8
2014-Aug-22 10:33N 38°51' E 118°13'1515.4
2014-Aug-22 09:33N 38°57' E 117°55'5 4.4
2014-Aug-22 08:32N 38°59' E 117°49'0 0.0
2014-Aug-22 07:31N 38°59' E 117°49'0 0.0
2014-Aug-22 06:28N 38°59' E 117°49'0 0.0
2014-Aug-22 05:31N 38°59' E 117°49'0 0.0
2014-Aug-22 04:31N 38°59' E 117°49'0 0.0
2014-Aug-22 03:31N 38°59' E 117°49'0 0.0
2014-Aug-22 02:31N 38°59' E 117°49'0 0.0
2014-Aug-22 01:31N 38°59' E 117°49'0 0.0
2014-Aug-22 00:31N 38°59' E 117°49'0 0.0
2014-Aug-21 23:31N 38°59' E 117°49'0 0.0
2014-Aug-21 22:31N 38°59' E 117°49'1010.1
2014-Aug-21 21:33N 38°56' E 118°01'15914.5
2014-Aug-21 10:33N 38°26' E 121°22'1813.5
2014-Aug-21 09:11N 38°16' E 121°41'2513.8
2014-Aug-21 07:23N 38°03' E 122°09'1213.6
2014-Aug-21 06:33N 37°58' E 122°22'1413.6
2014-Aug-21 05:33N 37°51' E 122°36'1313.5
2014-Aug-21 04:33N 37°44' E 122°51'1313.0
2014-Aug-21 03:33N 37°35' E 123°02'  
2014-Aug-16 23:15N 37°43' E 122°53'3319.0
2014-Aug-16 21:29N 37°59' E 122°16'3918.3
2014-Aug-16 19:22N 38°16' E 121°32'1518.3
2014-Aug-16 18:33N 38°24' E 121°16'11518.7
2014-Aug-16 12:25N 38°47' E 118°52'1518.1
2014-Aug-16 11:33N 38°49' E 118°32'1717.2
2014-Aug-16 10:33N 38°52' E 118°11'1414.4
2014-Aug-16 09:33N 38°57' E 117°53'4 3.5
2014-Aug-16 08:32N 38°59' E 117°49'0 0.0
2014-Aug-16 07:29N 38°59' E 117°49'0 0.0
2014-Aug-16 06:29N 38°59' E 117°49'0 0.0
2014-Aug-16 05:29N 38°59' E 117°49'0 0.0
2014-Aug-16 04:32N 38°59' E 117°49'0 0.0
2014-Aug-16 03:23N 38°59' E 117°49'0 0.0
2014-Aug-16 02:29N 38°59' E 117°49'0 0.0
2014-Aug-16 01:29N 38°59' E 117°49'0 0.0
2014-Aug-16 00:29N 38°59' E 117°49'0 0.0
2014-Aug-15 23:26N 38°59' E 117°49'0 0.0
2014-Aug-15 22:32N 38°59' E 117°49'1010.2
2014-Aug-15 21:33N 38°56' E 118°02'9 9.1
2014-Aug-15 20:33N 38°54' E 118°13'1313.1
2014-Aug-15 19:33N 38°50' E 118°29'13114.6
2014-Aug-15 10:33N 38°26' E 121°14'1413.9
2014-Aug-15 09:32N 38°20' E 121°30'1414.6
2014-Aug-15 08:33N 38°13' E 121°47'1414.3
2014-Aug-15 07:34N 38°06' E 122°02'1413.7
2014-Aug-15 06:33N 37°59' E 122°17'3113.3
2014-Aug-15 04:15N 37°44' E 122°51'1014.0
2014-Aug-15 03:33N 37°38' E 123°01'1514.8
2014-Aug-15 02:33N 37°25' E 123°09'  

Dump ship's entire track history